User: anonymous   Login
Location: Équennes
(49.7375°N, 1.9622°E)
Time: 20:52:00
(UTC+00:00)
Language:

CZ-6A DEB - Orbit

View from above orbital plane
View from above orbital plane
View from above satellite
View from above satellite

Ground track
Ground track

The orbit data is extracted from the following two-line orbital elements,

1 56260U 22151ACC 24051.98412952  .00001326  00000-0  60873-3 0  9991
2 56260  98.7906  65.5097 0044518 278.8690  80.7449 14.22475064 48003
Epoch (UTC): 20 February 2024 23:37:08
Eccentricity: 0.0044518
inclination: 98.7906°
perigee height: 785 km
apogee height: 849 km
right ascension of ascending node: 65.5097°
argument of perigee: 278.8690°
revolutions per day: 14.22475064
mean anomaly at epoch: 80.7449°
orbit number at epoch: 4800

The dashed part of the orbit path shows where the satellite is in the earth's shadow,  

DLR